CAPE
2881 3007 2774 2746 3371 3354 3070 3002 2619 2549 2456 1851 1300 1654 1946 2007 1909 1733 1699 1614 1436 1468 1432 1571 1492 1334 1041 1021 972 769 535 364 190 158 0 0 0 1 37 178 70 39 54
2962 2687 1953 147 2369 2971 2682 2649 2324 1711 1535 1611 1964 2219 2085 1641 1353 1361 1359 1414 1172 1090 1040 1084 1264 1049 857 931 813 666 566 414 326 272 19 0 0 0 20 16 80 60 44
1960 287 79 0 525 2389 2654 2442 2368 2305 2081 2181 2205 1559 1230 1330 911 1009 1327 1147 1046 1060 1019 898 979 853 919 708 599 544 362 276 233 177 51 15 5 3 2 34 66 50 41
597 48 0 0 44 2449 2529 2594 2506 2527 2314 2319 2010 1431 1281 777 337 263 362 487 610 711 606 692 854 844 706 527 428 422 312 223 161 75 9 1 0 0 5 0 0 1 0
43 52 0 40 329 971 925 1915 2380 2339 1978 1916 1633 1190 844 314 53 50 73 272 257 420 547 654 509 431 304 192 155 169 171 129 34 28 37 5 1 1 1 2 2 3 3
14 0 0 0 0 292 334 824 445 910 1613 1613 1220 889 639 141 0 0 92 291 301 288 371 224 268 223 50 17 12 0 0 1 2 34 31 9 0 1 1 1 4 4 3
188 20 228 44 22 331 609 1089 1340 1731 1629 1446 1197 862 666 321 0 0 1 328 234 91 159 113 140 62 53 18 6 14 21 20 14 1 1 0 2 1 1 2 3 2 1
394 347 444 755 708 507 549 420 410 610 763 834 794 645 267 5 0 0 92 341 294 223 182 141 67 71 79 55 9 3 52 53 36 18 11 0 0 2 0 0 0 0 0
596 489 303 137 162 233 138 109 239 480 592 500 476 371 162 97 48 45 209 237 258 227 189 146 146 124 103 73 8 79 95 73 60 48 13 1 1 1 0 0 0 0 3
126 153 372 363 328 123 82 151 192 393 425 310 244 252 173 57 55 21 111 133 224 178 137 99 135 176 133 66 32 57 47 91 71 48 47 1 0 0 0 0 0 0 0
245 511 613 514 392 168 285 375 333 335 371 252 151 103 18 23 0 0 31 189 211 131 87 90 178 170 71 1 56 8 0 2 48 30 46 11 0 0 0 0 0 0 0
434 668 544 321 318 358 381 420 413 367 336 347 270 229 185 81 30 0 50 129 159 120 99 83 108 127 27 16 1 8 3 14 6 5 1 40 15 10 7 0 0 0 2
210 31 247 330 209 329 352 383 384 417 360 304 152 31 34 37 40 69 114 47 128 139 114 81 83 24 24 14 7 0 6 22 0 0 7 37 68 59 33 27 23 18 5
174 375 335 166 276 263 251 294 349 351 291 211 100 16 23 74 106 84 4 0 2 101 125 72 30 23 31 10 1 1 0 16 4 12 7 19 8 48 61 33 30 38 30
271 238 146 183 227 245 295 335 341 235 207 164 49 54 89 96 116 115 48 30 22 14 163 87 40 20 18 20 13 15 17 4 12 1 0 1 11 6 12 33 37 34 32
123 183 186 186 191 223 213 204 210 135 77 17 6 7 43 85 108 81 35 19 36 0 114 108 56 38 22 8 4 2 2 2 10 1 3 13 4 17 0 21 38 60 65
114 95 77 69 152 199 179 154 171 168 35 0 0 0 0 11 14 2 16 9 0 4 117 106 75 44 17 4 7 8 3 14 2 10 17 5 22 32 24 42 48 56 60
2 0 13 45 121 33 3 0 40 125 98 22 1 0 0 0 0 0 0 1 0 0 60 71 81 33 13 4 0 0 2 0 0 4 20 30 34 32 0 28 61 72 58
0 0 2 5 129 43 16 10 29 86 73 84 61 0 0 0 0 0 0 58 0 0 21 50 79 117 31 2 0 1 1 2 4 0 0 9 27 29 22 21 45 52 41
1 1 2 3 3 5 36 42 70 14 0 23 63 44 1 0 0 0 0 14 0 0 1 5 56 72 49 34 23 8 4 0 0 0 2 6 6 13 32 25 8 24 30
0 0 2 3 4 4 1 3 3 25 26 19 11 23 0 6 6 9 0 7 12 0 0 0 1 17 18 17 27 37 22 20 6 5 15 29 41 41 37 22 6 4 7
0 0 2 5 6 5 4 5 5 3 4 1 3 4 0 0 9 3 1 4 0 0 5 3 9 19 27 20 14 23 34 47 40 33 35 39 37 42 31 16 12 7 2
0 0 0 3 4 6 6 6 5 5 6 6 7 7 5 5 4 4 11 8 1 6 18 8 21 41 43 29 19 18 25 36 55 66 62 57 50 33 29 19 5 13 5
0 0 0 0 1 3 3 5 5 5 6 6 6 6 6 7 7 5 5 3 1 3 2 1 0 4 1 0 0 0 0 0 5 22 41 38 31 39 33 15 11 7 8
0 0 0 0 0 0 0 0 3 3 4 5 5 5 6 5 5 6 6 5 4 1 4 5 6 2 0 0 0 0 0 0 0 0 43 65 45 38 30 16 11 11 10
0 0 0 0 0 0 0 0 0 0 0 2 2 3 3 4 4 4 5 4 4 5 6 1 1 2 3 4 1 0 0 0 0 0 0 4 1 1 25 54 52 22 16
CIN
-253 -243 -131 -44 -101 -126 -119 -102 -117 -106 -109 -141 -148 -105 -61 -42 -33 -24 -18 -9 -9 -9 -14 -16 -22 -27 -29 -34 -36 -28 -26 -28 -9 -55 -0 -0 -0 -50 -94 -29 -57 -57 -57
-170 -171 -155 -1519 -24 -71 -84 -100 -119 -128 -137 -122 -91 -52 -39 -35 -49 -42 -31 -16 -9 -8 -14 -14 -18 -30 -37 -29 -32 -35 -24 -48 -24 -13 -72 -0 -0 -0 -73 -50 -17 -21 -36
-171 -379 -304 -0 -206 -34 -99 -86 -99 -101 -113 -97 -55 -32 -31 -24 -44 -53 -18 -19 -17 -14 -7 -14 -17 -20 -16 -47 -54 -48 -62 -64 -51 -28 -37 -47 -41 -74 -13 -6 -6 -7 -23
-232 -227 -0 -0 -22 -25 -56 -82 -92 -95 -84 -55 -32 -19 -25 -102 -159 -177 -141 -53 -29 -25 -17 -20 -17 -7 -20 -33 -43 -41 -36 -15 -10 -10 -22 -14 -0 -0 -0 -0 -0 -0 -0
-284 -467 -0 -121 -351 -163 -30 -34 -57 -52 -33 -18 -15 -38 -104 -136 -178 -190 -162 -123 -73 -42 -18 -9 -23 -30 -46 -82 -78 -56 -18 -5 -24 -4 -4 -28 -0 -0 -11 -0 -0 -0 -0
-547 -0 -0 -6 -49 -168 -154 -63 -70 -4 -24 -37 -31 -62 -81 -152 -0 -0 -165 -124 -62 -31 -19 -35 -38 -58 -117 -134 -141 -0 -0 -59 -24 -10 -17 -3 -0 -0 -0 -0 -0 -0 -0
-269 -100 -268 -383 -179 -157 -78 -18 -7 -24 -55 -28 -26 -50 -56 -105 -0 -0 -121 -45 -80 -86 -54 -45 -65 -93 -99 -105 -81 -99 -78 -74 -87 -25 -18 -0 -0 -0 -0 -0 -0 -0 -0
-114 -118 -106 -75 -83 -75 -58 -80 -78 -85 -71 -45 -40 -55 -89 -64 -0 -0 -130 -42 -41 -51 -38 -50 -117 -82 -75 -97 -143 -86 -72 -65 -97 -114 -106 -33 -0 -0 -0 -0 -0 -0 -0
-21 -25 -34 -73 -73 -75 -117 -122 -106 -70 -59 -71 -74 -83 -127 -136 -142 -130 -72 -65 -63 -31 -39 -42 -73 -73 -83 -110 -189 -94 -84 -100 -112 -125 -152 -99 -172 -135 -0 -0 -0 -0 -1
-65 -53 -37 -43 -41 -80 -93 -95 -122 -95 -92 -107 -112 -125 -111 -107 -142 -103 -96 -84 -60 -45 -67 -41 -70 -67 -86 -110 -116 -114 -92 -100 -112 -118 -92 -105 -0 -0 -0 -0 -0 -0 -0
-22 -24 -18 -19 -22 -33 -32 -30 -45 -66 -66 -88 -108 -137 -158 -138 -0 -0 -123 -82 -69 -75 -69 -55 -77 -72 -116 -41 -84 -127 -38 -19 -99 -122 -78 -121 -0 -0 -0 -0 -0 -0 -0
-41 -33 -21 -27 -37 -25 -19 -23 -30 -57 -59 -56 -53 -57 -99 -118 -166 -0 -142 -101 -92 -85 -104 -75 -74 -83 -125 -147 -43 -88 -106 -80 -133 -116 -4 -61 -84 -107 -76 -0 -0 -0 -23
-47 -85 -75 -66 -78 -68 -48 -53 -55 -57 -42 -63 -64 -77 -102 -103 -123 -117 -102 -148 -114 -85 -101 -83 -65 -95 -107 -113 -96 -8 -80 -69 -35 -0 -87 -75 -77 -108 -94 -58 -74 -73 -63
-58 -43 -62 -77 -73 -103 -103 -81 -45 -54 -60 -73 -50 -64 -72 -71 -71 -110 -41 -0 -52 -85 -61 -47 -29 -57 -73 -75 -37 -72 -94 -57 -90 -104 -91 -62 -91 -83 -60 -68 -63 -51 -30
-36 -56 -67 -68 -80 -95 -90 -57 -41 -63 -40 -59 -61 -37 -34 -36 -48 -76 -115 -189 -194 -64 -30 -21 -20 -33 -58 -97 -82 -56 -70 -35 -43 -47 -0 -11 -48 -34 -61 -63 -52 -42 -27
-44 -48 -51 -59 -82 -72 -61 -89 -98 -89 -96 -141 -163 -171 -104 -96 -66 -73 -120 -188 -180 -0 -8 -2 -15 -22 -35 -59 -90 -57 -91 -57 -60 -66 -49 -43 -50 -43 -0 -57 -45 -28 -32
-43 -88 -58 -72 -68 -51 -54 -30 -49 -87 -137 -0 -0 -0 -0 -210 -182 -86 -132 -177 -4 -83 -30 -20 -19 -23 -30 -52 -63 -74 -79 -90 -78 -52 -54 -45 -38 -36 -36 -27 -34 -40 -32
-98 -0 -50 -64 -47 -87 -83 -0 -24 -44 -43 -59 -16 -0 -0 -0 -0 -0 -0 -38 -0 -0 -46 -32 -18 -23 -18 -31 -0 -0 -51 -29 -19 -58 -49 -46 -37 -36 -11 -44 -40 -36 -34
-0 -0 -0 -31 -30 -43 -55 -66 -27 -4 -33 -21 -49 -24 -0 -0 -0 -0 -0 -78 -0 -0 -38 -22 -23 -5 -29 -0 -0 -26 -45 -55 -60 -4 -0 -56 -45 -43 -35 -37 -46 -53 -33
-0 -0 -0 -0 -0 -12 -24 -10 -2 -0 -1 -16 -24 -58 -106 -6 -0 -0 -0 -71 -0 -0 -1 -12 -22 -16 -22 -26 -34 -39 -12 -0 -14 -8 -51 -61 -73 -57 -39 -44 -45 -33 -43
-0 -0 -0 -0 -0 -0 -0 -1 -0 -2 -1 -3 -7 -16 -14 -66 -60 -74 -2 -61 -50 -0 -0 -0 -1 -20 -19 -25 -32 -39 -69 -64 -61 -59 -57 -55 -60 -63 -60 -50 -38 -44 -48
-0 -0 -0 -0 -0 -0 -0 -0 -0 -0 -0 -0 -0 -0 -0 -0 -14 -18 -14 -47 -13 -0 -29 -10 -43 -44 -47 -43 -52 -53 -55 -59 -66 -64 -63 -56 -57 -54 -47 -40 -39 -44 -17
-0 -0 -0 -0 -0 -0 -0 -0 -0 -0 -0 -0 -0 -0 -0 -0 -0 -15 -12 -5 -8 -42 -35 -20 -43 -33 -34 -42 -49 -43 -43 -45 -47 -44 -50 -60 -71 -65 -69 -54 -51 -43 -49
-0 -0 -0 -0 -0 -0 -0 -0 -0 -0 -0 -0 -0 -0 -0 -0 -0 -0 -0 -0 -0 -0 -39 -52 -4 -40 -11 -0 -0 -0 -0 -13 -59 -80 -98 -113 -99 -90 -76 -67 -64 -50 -50
-0 -0 -0 -0 -0 -0 -0 -0 -0 -0 -0 -0 -0 -0 -0 -0 -0 -0 -0 -0 -0 -0 -0 -0 -0 -0 -0 -0 -0 -0 -0 -0 -0 -0 -123 -94 -84 -77 -79 -74 -82 -66 -68
-0 -0 -0 -0 -0 -0 -0 -0 -0 -0 -0 -0 -0 -0 -0 -0 -0 -0 -0 -0 -0 -0 -0 -0 -0 -0 -0 -0 -0 -0 -0 -0 -0 -0 -0 -145 -49 -50 -69 -80 -77 -71 -66
Wind_Speed
15 14 19 22 13 10 12 14 14 15 17 19 21 25 27 29 31 33 34 34 35 34 33 31 30 29 28 27 25 25 25 24 26 28 24 21 17 16 18 18 19 18 18
17 14 26 37 25 21 21 17 16 18 19 19 21 24 27 30 31 30 32 32 34 37 36 33 31 29 29 28 27 27 27 25 25 27 22 19 19 15 16 19 19 19 21
19 15 18 21 18 25 20 18 19 21 21 19 21 25 30 30 33 33 32 30 32 34 35 33 30 29 30 28 27 26 25 24 23 25 25 22 21 20 20 20 20 18 17
11 13 23 22 19 21 21 26 21 21 25 24 25 25 27 30 30 33 32 32 35 34 33 30 27 25 24 24 24 25 25 25 25 26 25 24 24 23 21 17 18 17 16
17 24 26 27 23 25 36 38 28 23 28 25 26 24 26 26 29 32 27 27 30 30 29 29 27 26 27 26 25 24 22 22 23 24 25 23 23 22 15 14 16 15 18
21 22 28 26 20 20 34 51 49 24 28 25 26 26 24 25 27 25 21 22 23 25 29 27 24 23 23 22 19 17 15 14 16 18 21 18 14 13 12 13 12 16 17
25 27 30 29 26 26 25 29 25 25 28 29 27 23 24 25 26 26 26 22 22 23 26 20 19 16 13 13 12 13 10 9 9 9 10 8 9 11 12 14 11 13 18
31 31 32 33 31 29 31 36 36 37 36 30 25 24 25 25 26 24 23 25 25 25 20 15 12 8 6 5 10 11 9 8 7 8 8 7 4 4 13 11 10 12 11
34 33 33 36 37 38 42 43 40 37 34 32 28 26 24 24 22 21 17 13 25 24 15 12 10 6 3 2 7 9 5 6 5 7 8 7 5 2 5 5 8 9 10
35 36 35 34 36 39 39 38 39 38 37 36 32 23 20 18 19 13 8 12 15 18 13 12 11 6 6 4 6 7 3 6 4 5 7 6 3 5 5 3 7 10 13
35 35 34 34 37 39 36 35 36 34 33 32 26 22 18 16 14 14 10 11 11 12 13 13 9 5 4 3 5 3 9 7 3 5 4 4 4 2 4 12 21 11 12
38 37 37 36 36 35 33 32 30 31 33 30 27 24 17 16 14 17 14 7 6 7 14 11 9 8 6 7 8 13 13 13 9 8 6 1 4 9 5 29 25 26 22
40 39 39 37 38 35 34 32 33 33 31 30 26 21 19 18 20 16 16 4 3 8 4 7 10 9 9 11 14 19 10 13 10 10 7 2 8 9 6 15 24 24 25
42 42 39 43 39 39 35 33 32 32 29 29 28 20 16 19 21 19 18 9 1 1 1 10 20 11 10 11 12 17 13 21 18 9 4 6 10 10 9 12 19 16 18
41 42 41 40 39 41 39 33 30 27 22 25 26 18 13 9 14 12 6 9 4 3 4 15 16 16 16 19 30 22 24 22 12 7 7 13 12 9 12 10 13 11 15
38 38 41 40 39 40 35 34 28 23 16 16 15 14 13 8 19 11 1 3 2 4 4 13 15 13 11 16 18 14 21 14 8 9 16 16 15 16 11 13 13 8 8
33 37 22 35 36 38 40 38 39 37 24 23 25 22 18 10 16 4 2 3 5 5 7 16 16 13 20 20 15 23 21 19 20 18 18 23 26 29 31 24 7 9 10
32 33 33 35 37 38 38 39 33 31 34 25 24 21 20 20 21 5 3 4 8 9 17 15 15 14 18 14 22 27 26 22 21 23 24 23 29 25 24 23 11 9 8
36 36 38 35 34 37 31 37 36 31 22 24 22 19 17 18 14 7 2 5 6 8 13 15 12 11 11 16 18 21 23 23 23 26 31 30 26 19 17 12 7 8 8
36 38 38 35 35 36 34 37 34 30 27 26 20 19 20 18 15 11 4 9 10 11 10 17 17 15 15 16 20 19 21 26 26 26 28 27 26 22 18 15 11 10 10
35 37 36 35 34 34 34 34 34 31 30 27 25 24 23 19 16 10 12 16 16 15 12 13 17 12 13 13 14 22 21 26 28 27 26 24 19 16 15 16 17 16 15
34 35 35 34 34 34 34 33 32 32 31 28 27 26 24 19 18 16 7 23 24 20 17 13 12 16 12 12 16 20 22 24 25 24 24 23 22 22 22 21 20 16 14
34 34 34 34 33 33 33 32 32 32 31 30 28 28 27 25 22 24 15 15 17 22 22 24 26 25 24 23 19 20 23 25 24 25 26 25 24 21 20 22 20 18 16
35 34 34 33 33 33 33 32 32 32 31 30 29 28 27 26 24 25 25 23 23 24 22 22 23 24 23 22 21 21 23 26 25 23 22 23 25 25 23 23 23 23 22
34 34 34 33 33 33 33 33 32 32 31 30 29 28 27 27 27 26 26 24 24 23 19 14 17 18 18 19 20 20 19 19 17 20 20 21 25 25 27 29 29 28 27
31 32 32 32 32 32 32 32 32 31 30 30 30 29 28 28 27 27 27 26 24 24 21 18 16 16 16 17 19 20 19 22 22 20 19 22 25 26 25 26 27 28 28
Wind_Direction
298 275 284 260 251 281 288 292 291 302 311 316 321 325 326 327 325 322 319 316 311 306 301 297 294 294 292 290 286 284 282 279 279 285 284 283 274 265 270 269 268 267 269
325 316 310 313 329 309 302 292 290 297 307 312 319 323 327 326 326 325 322 318 312 306 301 298 294 294 292 290 287 285 283 278 276 280 279 278 277 267 264 266 268 269 269
335 322 341 336 260 297 288 283 292 299 304 309 316 320 321 323 325 325 322 317 313 307 302 299 296 295 293 293 290 288 285 282 278 279 280 277 274 283 277 276 268 263 258
336 321 318 314 274 286 278 289 296 301 304 307 313 317 319 321 323 324 320 318 308 304 302 300 298 296 295 294 291 289 287 283 281 279 279 280 279 279 279 269 265 254 241
328 323 325 323 308 311 297 287 296 301 307 311 310 315 315 319 323 325 323 321 313 305 300 298 298 298 295 294 292 290 288 284 282 281 282 281 277 275 256 259 251 234 221
340 340 339 340 323 320 308 288 308 295 307 311 311 313 308 314 317 322 322 321 317 309 300 297 298 301 300 298 298 299 297 291 290 292 292 278 267 258 250 230 225 227 236
344 340 340 340 336 327 319 318 311 310 314 309 308 305 305 308 311 313 310 308 310 304 299 299 301 305 306 307 309 313 316 314 321 339 336 290 267 244 228 235 231 232 239
338 336 334 332 330 327 324 324 322 320 318 316 309 306 305 304 305 301 298 299 298 298 295 295 293 293 301 309 310 311 321 337 341 350 27 50 24 237 235 240 239 236 251
335 333 332 329 327 325 322 321 322 321 320 317 314 309 304 302 304 305 300 295 292 291 286 285 283 259 233 201 302 304 342 3 27 25 26 43 44 151 226 208 217 201 212
335 332 331 331 329 327 325 325 325 323 320 319 317 307 296 293 305 307 272 308 296 291 278 277 275 225 204 189 276 301 335 312 20 359 348 19 48 226 133 168 154 194 220
332 332 331 329 329 327 326 326 326 326 323 319 311 302 289 292 298 303 295 307 301 288 272 270 261 215 229 222 251 278 290 289 323 327 341 315 270 146 182 126 156 219 225
330 329 329 330 331 331 329 328 327 327 325 323 319 313 298 293 300 308 303 276 289 276 261 258 234 222 234 272 280 273 282 271 279 284 297 28 126 136 176 218 225 227 238
328 327 328 332 331 334 332 331 330 331 329 330 328 323 312 304 306 311 307 260 217 176 224 223 220 217 255 273 274 269 282 262 264 269 275 266 140 146 227 244 238 239 243
325 325 330 322 334 336 337 336 334 334 335 335 332 327 321 310 304 314 305 304 174 233 264 260 248 241 253 270 282 272 260 256 254 262 253 267 263 256 250 248 244 243 251
323 325 327 333 337 335 336 339 339 339 339 338 336 339 339 329 322 326 329 298 148 193 278 262 256 251 256 262 229 269 251 249 251 247 251 257 254 256 258 251 247 239 249
333 331 331 336 338 340 344 342 346 347 348 352 350 344 331 326 313 328 49 344 141 164 233 265 256 250 248 262 273 266 248 250 232 243 250 252 253 255 260 257 252 220 200
352 343 357 345 347 345 341 339 328 329 352 347 333 321 327 342 320 132 103 67 121 145 268 266 258 256 260 265 266 247 249 249 250 253 249 248 245 238 235 247 180 174 181
355 357 355 351 344 346 349 346 351 341 331 341 336 306 309 304 288 331 106 329 307 287 269 268 266 267 264 266 252 248 248 251 251 250 249 249 244 252 255 257 253 223 225
347 352 341 346 352 348 8 0 328 323 2 334 328 326 334 334 333 331 115 301 305 299 282 275 273 274 268 266 261 257 255 252 251 251 246 248 253 257 264 266 236 233 230
353 349 344 348 344 345 3 350 345 359 353 359 335 300 309 345 346 323 308 292 293 298 295 278 275 274 271 265 261 260 257 251 251 254 253 256 259 260 259 257 249 247 246
357 351 346 353 345 345 348 354 351 345 350 348 331 317 314 350 11 10 299 286 287 287 293 289 281 279 273 266 264 261 258 255 255 256 258 261 261 261 265 264 259 257 255
1 356 354 355 350 351 352 358 357 357 355 342 333 327 319 356 360 357 15 291 278 281 284 288 287 278 273 272 266 263 261 260 260 260 260 262 265 265 267 266 264 259 251
4 2 1 359 355 356 358 359 357 355 355 350 343 344 342 333 329 325 3 333 308 284 281 276 274 274 274 277 275 269 266 263 263 262 263 264 262 263 264 265 264 257 252
6 5 4 4 2 2 358 359 359 357 356 357 350 347 346 345 343 342 337 332 320 301 292 280 278 274 275 278 283 278 272 270 269 268 268 267 264 263 263 265 265 263 262
12 12 9 7 6 5 4 2 1 2 0 358 357 354 352 351 351 350 350 350 348 336 320 306 294 288 284 279 278 281 283 281 279 274 273 271 269 266 265 267 268 266 270
12 12 11 10 9 7 6 4 3 3 2 1 2 2 360 358 358 357 352 350 349 351 353 350 329 313 297 286 284 283 285 283 284 283 285 278 277 275 273 270 269 271 270